sat.trackr.live / text

‹ back to catalog

KUIPER-00615

NORAD 69774 · 2026-151M

PAYLOAD ACTIVE UNKNOWN

§ Identity

Operator
Country
US
Launch date
2026-07-02
Launch site
AFETR
Launch vehicle
Mass (kg)
RCS (m²)

External: N2YO · Heavens-Above · Gunter

§ Orbital elements

Epoch: 2026-09-19T16:12:44.186688Z

Period
97.30 min
Inclination
51.8997°
Eccentricity
0.0001114
Mean motion
14.79941745 rev/d
Perigee alt
628.7 km
Apogee alt
630.3 km
Semi-major
7,007.6 km
B*
3.4596e-4
RAAN
237.7761°
Arg perigee
131.5094°
Mean anomaly
228.5964°
Rev number
1,198

§ Raw data

KUIPER-006151 69774U 26151M   26262.67551142  .00002418  00000+0  34596-3 0  99912 69774  51.8997 237.7761 0001114 131.5094 228.5964 14.79941745 11983

JSON: /api/v1/satellites/69774 · /tle

For live sub-satellite position, see the globe view (requires WebGL).

§ Visibility from observer

Set your observer location to see the next 7 days of passes ≥ 10°. The values pass through the URL so the page stays shareable.

No JS? Fill the form by hand. The geolocation button needs JavaScript.